RYR3EV LFRS-EGSS

Flight info

Callsign RYR3EV
Flight time N/A
Altitude 28000
Route BALNI DCT RINSO UN867 EKRAS UM184 DIKRO UM185 ADLOG M185 TELTU
Aircraft B738/M-SDE3FGILRWY/SB1

Departure

Time 2026-04-30 21:46
Airport Nantes Atlantique Airport (LFRS)

Arrival

Time N/A
Airport London Stansted Airport (EGSS)
Time Latitude Longitude Altitude Speed Heading
2026-04-30 21:27 47.15414 -1.60374 96 ft 0 kts 207°
2026-04-30 21:35 47.15415 -1.60373 96 ft 1 kts 207°
2026-04-30 21:36 47.15435 -1.60355 95 ft 4 kts 225°
2026-04-30 21:36 47.15446 -1.60327 95 ft 4 kts 287°
2026-04-30 21:37 47.15434 -1.60287 94 ft 2 kts 297°
2026-04-30 21:41 47.15437 -1.60295 95 ft 6 kts 297°
2026-04-30 21:41 47.15497 -1.60383 92 ft 15 kts 327°
2026-04-30 21:41 47.15565 -1.60498 90 ft 14 kts 307°
2026-04-30 21:42 47.15643 -1.60554 88 ft 14 kts 18°
2026-04-30 21:42 47.15728 -1.60493 91 ft 13 kts 27°
2026-04-30 21:42 47.15807 -1.60432 90 ft 13 kts 28°
2026-04-30 21:42 47.15885 -1.60371 88 ft 13 kts 28°
2026-04-30 21:43 47.15961 -1.60312 90 ft 12 kts 27°
2026-04-30 21:43 47.16037 -1.60257 90 ft 12 kts 28°
2026-04-30 21:43 47.16123 -1.60192 90 ft 16 kts 27°
2026-04-30 21:43 47.16230 -1.60110 90 ft 19 kts 28°
2026-04-30 21:44 47.16345 -1.60059 89 ft 16 kts 349°
2026-04-30 21:44 47.16439 -1.60121 86 ft 13 kts 307°
2026-04-30 21:44 47.16421 -1.60230 86 ft 12 kts 212°
2026-04-30 21:44 47.16390 -1.60255 90 ft 0 kts 207°
2026-04-30 21:45 47.16352 -1.60284 88 ft 33 kts 207°
2026-04-30 21:45 47.15880 -1.60634 85 ft 116 kts 207°
2026-04-30 21:45 47.14965 -1.61342 173 ft 175 kts 206°
2026-04-30 21:46 47.13855 -1.62141 1082 ft 175 kts 204°
2026-04-30 21:46 47.12748 -1.62895 2127 ft 180 kts 206°
2026-04-30 21:46 47.11694 -1.64140 2490 ft 214 kts 236°
2026-04-30 21:46 47.11369 -1.66381 2922 ft 235 kts 273°
2026-04-30 21:47 47.11639 -1.68745 3578 ft 241 kts 279°
2026-04-30 21:47 47.11955 -1.71171 4317 ft 242 kts 279°
2026-04-30 21:47 47.12270 -1.73632 4948 ft 253 kts 279°
2026-04-30 21:47 47.12596 -1.76255 5468 ft 268 kts 279°
2026-04-30 21:48 47.12926 -1.78971 6432 ft 269 kts 278°
2026-04-30 21:48 47.13251 -1.81688 7395 ft 273 kts 278°
2026-04-30 21:48 47.13578 -1.84475 8221 ft 281 kts 278°
2026-04-30 21:48 47.13910 -1.87326 9095 ft 287 kts 278°
2026-04-30 21:49 47.14247 -1.90242 9974 ft 292 kts 277°
2026-04-30 21:49 47.14589 -1.93231 10648 ft 305 kts 278°
2026-04-30 21:49 47.14713 -1.96461 10861 ft 329 kts 258°
2026-04-30 21:49 47.13821 -1.99562 11476 ft 335 kts 232°
2026-04-30 21:50 47.12316 -2.02178 12316 ft 337 kts 226°
2026-04-30 21:50 47.10728 -2.04737 13151 ft 341 kts 225°
2026-04-30 21:50 47.09111 -2.07321 13949 ft 345 kts 226°
2026-04-30 21:50 47.07484 -2.09941 14667 ft 350 kts 226°
2026-04-30 21:51 47.05843 -2.12607 15388 ft 354 kts 226°
2026-04-30 21:51 47.04189 -2.15312 16120 ft 359 kts 226°
2026-04-30 21:51 47.02517 -2.18053 16856 ft 363 kts 227°
2026-04-30 21:51 47.00827 -2.20828 17584 ft 367 kts 227°
2026-04-30 21:52 46.99115 -2.23636 18305 ft 372 kts 227°
2026-04-30 21:52 46.97380 -2.26472 18943 ft 376 kts 226°
2026-04-30 21:52 46.95503 -2.29144 19562 ft 378 kts 213°
2026-04-30 21:52 46.93188 -2.30975 20199 ft 380 kts 204°
2026-04-30 21:53 46.90805 -2.32685 20808 ft 384 kts 205°
2026-04-30 21:53 46.88427 -2.34447 21412 ft 388 kts 206°
2026-04-30 21:53 46.86020 -2.36268 22027 ft 391 kts 206°
2026-04-30 21:53 46.83601 -2.38111 22668 ft 393 kts 206°
2026-04-30 21:54 46.81177 -2.39955 23462 ft 391 kts 206°
2026-04-30 21:54 46.78803 -2.41761 24196 ft 389 kts 206°
2026-04-30 21:54 46.76323 -2.43398 24841 ft 386 kts 193°
2026-04-30 21:54 46.73706 -2.43618 25413 ft 383 kts 169°
2026-04-30 21:55 46.71221 -2.42201 26066 ft 379 kts 145°
2026-04-30 21:55 46.69278 -2.39711 26683 ft 378 kts 129°
2026-04-30 21:55 46.67845 -2.36520 27253 ft 379 kts 114°
2026-04-30 21:55 46.67099 -2.32853 27821 ft 379 kts 96°
2026-04-30 21:56 46.67174 -2.29036 28160 ft 380 kts 78°
2026-04-30 21:56 46.68139 -2.25470 28168 ft 380 kts 57°
2026-04-30 21:56 46.69863 -2.22556 28164 ft 382 kts 40°
2026-04-30 21:56 46.72115 -2.20513 28158 ft 383 kts 25°
2026-04-30 21:57 46.77061 -2.17591 28160 ft 384 kts 21°
2026-04-30 21:57 46.82046 -2.14792 28152 ft 384 kts 21°
2026-04-30 21:58 46.87026 -2.11936 28153 ft 384 kts 22°
2026-04-30 21:58 46.91989 -2.09041 28155 ft 384 kts 22°
2026-04-30 21:59 46.96941 -2.06132 28147 ft 384 kts 22°
2026-04-30 22:00 47.04362 -2.01754 28148 ft 383 kts 22°
2026-04-30 22:00 47.11747 -1.97383 28161 ft 381 kts 22°
2026-04-30 22:01 47.16660 -1.94468 28152 ft 381 kts 22°
2026-04-30 22:01 47.21685 -1.91480 28172 ft 401 kts 22°
2026-04-30 22:02 47.24309 -1.89917 28174 ft 413 kts 22°
2026-04-30 22:02 47.27013 -1.88305 28176 ft 424 kts 22°
2026-04-30 22:02 47.32574 -1.84986 28171 ft 444 kts 22°
2026-04-30 22:03 47.38403 -1.81499 28168 ft 460 kts 22°
2026-04-30 22:03 47.44382 -1.77913 28147 ft 465 kts 22°
2026-04-30 22:04 47.50341 -1.74328 28150 ft 465 kts 23°
2026-04-30 22:05 47.59301 -1.68920 28146 ft 462 kts 23°
2026-04-30 22:05 47.65261 -1.65366 28149 ft 461 kts 22°
2026-04-30 22:06 47.71238 -1.61931 28157 ft 460 kts 22°
2026-04-30 22:06 47.80170 -1.56778 28142 ft 457 kts 22°
2026-04-30 22:07 47.86180 -1.53276 28168 ft 470 kts 22°
2026-04-30 22:07 47.92274 -1.49715 28149 ft 469 kts 22°
2026-04-30 22:08 47.98343 -1.46166 28152 ft 468 kts 22°
2026-04-30 22:08 48.04641 -1.43833 28159 ft 469 kts
2026-04-30 22:09 48.11165 -1.44024 28161 ft 470 kts 357°
2026-04-30 22:09 48.17698 -1.44621 28150 ft 470 kts 357°
2026-04-30 22:10 48.24238 -1.45158 28149 ft 471 kts 357°
2026-04-30 22:10 48.30793 -1.45640 28148 ft 472 kts 358°
2026-04-30 22:11 48.40606 -1.46338 28141 ft 473 kts 358°
2026-04-30 22:12 48.47190 -1.46810 28143 ft 474 kts 358°
2026-04-30 22:12 48.53774 -1.47286 28147 ft 474 kts 358°
2026-04-30 22:13 48.60370 -1.47764 28143 ft 474 kts 358°
2026-04-30 22:13 48.66967 -1.48243 28138 ft 474 kts 358°
2026-04-30 22:14 48.73535 -1.48719 28139 ft 474 kts 358°
2026-04-30 22:14 48.80043 -1.49183 28133 ft 462 kts 358°
2026-04-30 22:15 48.86556 -1.49643 28151 ft 475 kts 359°
2026-04-30 22:15 48.93075 -1.48314 28132 ft 472 kts 18°
2026-04-30 22:16 48.99178 -1.44907 28135 ft 470 kts 22°
2026-04-30 22:17 49.11395 -1.37884 28140 ft 469 kts 21°
2026-04-30 22:17 49.20588 -1.32701 28135 ft 470 kts 21°
2026-04-30 22:18 49.29791 -1.27497 28140 ft 470 kts 21°
2026-04-30 22:19 49.38916 -1.22311 28138 ft 471 kts 21°
2026-04-30 22:20 49.46654 -1.17896 28135 ft 471 kts 21°
2026-04-30 22:20 49.53867 -1.13766 28124 ft 471 kts 21°
2026-04-30 22:21 49.58686 -1.10659 28126 ft 469 kts 30°
2026-04-30 22:21 49.62915 -1.06144 28159 ft 466 kts 40°
2026-04-30 22:22 49.66972 -1.01125 28140 ft 467 kts 40°
2026-04-30 22:22 49.71086 -0.96175 28141 ft 467 kts 40°
2026-04-30 22:23 49.75605 -0.91977 28173 ft 469 kts 23°
2026-04-30 22:23 49.80571 -0.89765 28020 ft 476 kts 10°
2026-04-30 22:24 49.83145 -0.89357 28173 ft 473 kts
2026-04-30 22:24 49.85621 -0.89073 28128 ft 475 kts
2026-04-30 22:24 49.90429 -0.88545 28125 ft 461 kts
2026-04-30 22:25 49.92778 -0.88252 28130 ft 448 kts
2026-04-30 22:25 49.95097 -0.87933 28120 ft 434 kts
2026-04-30 22:25 49.97417 -0.87598 28120 ft 421 kts
2026-04-30 22:25 49.99543 -0.87288 28129 ft 410 kts
2026-04-30 22:26 50.03683 -0.86690 28128 ft 389 kts
2026-04-30 22:26 50.05685 -0.86407 28131 ft 387 kts
2026-04-30 22:27 50.09762 -0.85829 28160 ft 399 kts
2026-04-30 22:27 50.15948 -0.84954 27878 ft 391 kts
2026-04-30 22:28 50.19312 -0.84477 27497 ft 386 kts
2026-04-30 22:28 50.21309 -0.84193 27292 ft 382 kts
2026-04-30 22:29 50.27182 -0.83352 26486 ft 378 kts
2026-04-30 22:29 50.29137 -0.83073 26221 ft 376 kts
2026-04-30 22:30 50.37212 -0.81911 25151 ft 371 kts
2026-04-30 22:31 50.42979 -0.81066 24383 ft 368 kts
2026-04-30 22:32 50.48680 -0.80227 23592 ft 366 kts
2026-04-30 22:32 50.53071 -0.79579 22943 ft 363 kts
2026-04-30 22:33 50.60558 -0.78476 21924 ft 357 kts
2026-04-30 22:33 50.65474 -0.77761 21259 ft 353 kts
2026-04-30 22:34 50.72748 -0.76715 20289 ft 347 kts
2026-04-30 22:35 50.77544 -0.76021 19650 ft 345 kts
2026-04-30 22:36 50.86521 -0.72210 18723 ft 333 kts 27°
2026-04-30 22:36 50.88664 -0.70773 18536 ft 336 kts 26°
2026-04-30 22:37 50.95172 -0.66477 17889 ft 336 kts 26°
2026-04-30 22:37 50.97325 -0.65076 17708 ft 334 kts 26°
2026-04-30 22:37 51.01578 -0.62313 17324 ft 331 kts 26°
2026-04-30 22:38 51.05827 -0.59554 16948 ft 329 kts 25°
2026-04-30 22:38 51.10053 -0.56806 16579 ft 328 kts 25°
2026-04-30 22:39 51.12162 -0.55432 16387 ft 327 kts 25°
2026-04-30 22:39 51.18478 -0.51310 15832 ft 327 kts 25°
2026-04-30 22:40 51.24786 -0.47182 15280 ft 326 kts 25°
2026-04-30 22:41 51.31067 -0.43059 14719 ft 324 kts 25°
2026-04-30 22:41 51.35235 -0.40315 14356 ft 323 kts 25°
2026-04-30 22:42 51.43509 -0.34853 13596 ft 320 kts 26°
2026-04-30 22:43 51.47527 -0.31861 13230 ft 317 kts 28°
2026-04-30 22:43 51.51474 -0.28804 12860 ft 314 kts 28°
2026-04-30 22:44 51.55380 -0.25792 12499 ft 309 kts 28°
2026-04-30 22:45 51.63056 -0.19884 11861 ft 303 kts 28°
2026-04-30 22:45 51.66851 -0.16958 11517 ft 302 kts 28°
2026-04-30 22:46 51.70630 -0.14041 11176 ft 301 kts 28°
2026-04-30 22:47 51.78182 -0.08380 10480 ft 300 kts 25°
2026-04-30 22:47 51.81771 -0.05904 10135 ft 291 kts 25°
2026-04-30 22:48 51.85141 -0.03559 9790 ft 290 kts 25°
2026-04-30 22:49 51.90098 -0.00079 9335 ft 291 kts 26°
2026-04-30 22:49 51.95489 0.03718 8852 ft 283 kts 26°
2026-04-30 22:50 52.02360 0.06429 8460 ft 231 kts
2026-04-30 22:51 52.05455 0.06564 8040 ft 216 kts
2026-04-30 22:51 52.08402 0.06723 7773 ft 211 kts
2026-04-30 22:52 52.09881 0.06723 7659 ft 215 kts 352°
2026-04-30 22:52 52.12206 0.03931 7409 ft 215 kts 290°
2026-04-30 22:53 52.12074 -0.00604 7164 ft 202 kts 234°
2026-04-30 22:53 52.09919 -0.03122 6948 ft 192 kts 190°
2026-04-30 22:53 52.08608 -0.03470 6837 ft 191 kts 186°
2026-04-30 22:54 52.05957 -0.04125 6449 ft 196 kts 186°
2026-04-30 22:55 52.02202 -0.05060 6039 ft 173 kts 187°
2026-04-30 22:55 51.99944 -0.04538 5748 ft 166 kts 144°
2026-04-30 22:56 51.98058 -0.02397 5502 ft 172 kts 146°
2026-04-30 22:56 51.95137 0.00896 4827 ft 166 kts 147°
2026-04-30 22:57 51.93271 0.02803 4386 ft 156 kts 165°
2026-04-30 22:57 51.91146 0.02981 4008 ft 156 kts 188°
2026-04-30 22:58 51.89060 0.02157 3605 ft 155 kts 189°
2026-04-30 22:59 51.85952 0.00900 3079 ft 153 kts 188°
2026-04-30 22:59 51.82843 -0.00322 3036 ft 152 kts 188°